Regional Weather Roundup
Issued by NWS

Home | Current Version | Previous Version | Text Only | Print | Product List | Glossary Off
Versions: 1 2 3 4 5 6 7 8 9 10 11 12 13 14 15 16 17 18 19 20 21 22 23 24 25 26 27 28 29 30 31 32 33 34 35 36 37 38 39 40 41 42 43 44 45 46 47 48 49 50

000
ASUS45 KTFX 012219
RWRMT
MONTANA REGIONAL WEATHER ROUNDUP
NATIONAL WEATHER SERVICE GREAT FALLS MT
400 PM MDT TUE SEP 01 2015

NOTE: "FAIR" INDICATES FEW OR NO CLOUDS BELOW 12000 FEET WITH NO
SIGNIFICANT WEATHER AND/OR OBSTRUCTIONS TO VISIBILITY.

MTZ001>007-043-012300-
WEST OF THE DIVIDE

CITY           SKY/WX    TMP DP  RH WIND       PRES   REMARKS
KALISPELL      MOCLDY    75  38  26 MISG      29.80F
MISSOULA       SUNNY     80  40  23 VRB7      29.82F
BUTTE          MOSUNNY   76  24  14 NW10      29.93F
MULLAN PASS    SUNNY     62  31  31 SW5       29.97F
DEER LODGE       N/A     79  34  19 N9        29.91F
EUREKA           N/A     73  39  29 SW14      29.81F
HAMILTON         N/A     82  37  20 E5        29.80F
LIBBY            N/A     75  41  29 S7        29.81F
PLAINS           N/A     83  31  15 S22       29.81F
RONAN            N/A     79  38  22 CALM      29.89F
$$

MTZ008-052>055-012300-
SOUTHWEST MONTANA

CITY           SKY/WX    TMP DP  RH WIND       PRES   REMARKS
BOZEMAN        SUNNY     83  36  18 VRB6      29.86F
DILLON         SUNNY     84  29  13 W17       29.89F
W YELLOWSTONE  SUNNY     75  25  15 SW18G31   30.05F
THREE FORKS      N/A     86 -18   1 CALM      29.86F
TWIN BRIDGES     N/A     83  35  17 S15       29.89F
$$

MTZ009-010-012-014-046-048-049-054-012300-
EAST SLOPES AND CENTRAL MONTANA

CITY           SKY/WX    TMP DP  RH WIND       PRES   REMARKS
CUT BANK       SUNNY     78  31  17 W26G32    29.78F
GREAT FALLS    PTSUNNY   84  32  15 SW14G30   29.80F
MALMSTROM AFB  PTSUNNY   82  31  16 SW18      29.80F
HELENA         MOSUNNY   84  37  18 NE8       29.82F
CONRAD           N/A     82  26  13 S5        29.83F
$$

MTZ011-013-016-021-045-047-050-051-012300-
NORTH CENTRAL MONTANA

CITY           SKY/WX    TMP DP  RH WIND       PRES   REMARKS
HAVRE          PTSUNNY   84  26  12 SW24G30   29.73F
LEWISTOWN      SUNNY     84  30  14 W5        29.84F
N BAR RANCH      N/A     84  28  13 NW8       29.88F
CHINOOK          N/A     84  28  13 SW16G32   29.73S
FORT BENTON      N/A     82  28  14 SW13      29.76F
$$

MTZ017>020-022>027-061-062-012300-
NORTHEAST MONTANA

CITY           SKY/WX    TMP DP  RH WIND       PRES   REMARKS
GLASGOW        SUNNY     87  36  16 W14G22    29.74F
JORDAN           N/A     89  33  13 SW9       29.77F
SIDNEY         SUNNY     93  46  20 S12       29.72S
WOLF POINT     SUNNY     89  37  16 W13       29.74F
MALTA            N/A     87  41  19 CALM      29.72F
PLENTYWOOD       N/A     88  43  20 SW15G22   29.73S
POPLAR           N/A     88  36  15 SW13G18   29.75S
SCOBEY           N/A     85  43  22 W13       29.76F
$$

MTZ028>42-056>058-012300-
SOUTHCENTRAL AND SOUTHEAST MONTANA

CITY           SKY/WX    TMP DP  RH WIND       PRES   REMARKS
BAKER          SUNNY     92  42  17 VRB3      29.81F
BILLINGS       MOSUNNY   89  27  10 S3        29.81F
LIVINGSTON     SUNNY     89  26  10 MISG      29.84F
MILES CITY     SUNNY     92  36  14 W8        29.77F
EKALAKA          N/A     87  37  17 NW6       29.84F
FORSYTH          N/A     90  34  13 SW7       29.77F
LAUREL           N/A     90  32  12 NE7       29.82F
ROUNDUP          N/A     89  29  11 SW8       29.74F
$$

REGIONAL REPORTS...DAKOTAS

CITY           SKY/WX    TMP DP  RH WIND       PRES   REMARKS
WILLISTON      SUNNY     93  45  19 SW12      29.73F
MINOT          SUNNY     89  52  28 S17       29.75F
DICKINSON      SUNNY     88  55  32 SE13      29.78F
BEACH            N/A     91  37  15 SW10G16   29.79S
CROSBY           N/A     90  46  22 SW14G23   29.72F
BISMARCK       SUNNY     88  62  41 SE8       29.78F
GRAND FORKS    MOSUNNY   88  52  29 S13       29.81F
FARGO          MOSUNNY   89  51  27 E13G18    29.81F
BUFFALO SD       N/A     88  56  33 CALM      29.76F
RAPID CITY     SUNNY     87  58  37 NE9       29.84F
$$

REGIONAL REPORTS...WYOMING/IDAHO/WASHINGTON

CITY           SKY/WX    TMP DP  RH WIND       PRES   REMARKS
GILLETTE       SUNNY     90  28  11 W12       29.89F
SHERIDAN       SUNNY     93  28  10 NE10      29.83F
BUFFALO WY     SUNNY     90  27  10 E8        29.92F
CODY           SUNNY     88  28  11 SE12G20   29.89S
YELLOWSTONE LA   N/A     72  21  14 W13G23    30.17F
IDAHO FALLS    SUNNY     85  28  12 SW17      29.94F
SALMON         SUNNY     84  37  18 N6        29.77F
BOISE          MOSUNNY   84  42  22 NW7       29.82F
SPOKANE        PTSUNNY   72  42  34 SW14      29.82F
$$

REGIONAL REPORTS...ALBERTA

CITY           SKY/WX    TMP DP  RH WIND       PRES   REMARKS
EDMONTON       MOSUNNY   68  36  30 NW10G17   29.66R
CALGARY        PTSUNNY   72  41  33 VRB3      29.67S
LETHBRIDGE     PTSUNNY   79  30  17 W23G32    29.70F
MEDICINE HAT   MOSUNNY   82  36  18 SW10G21   29.67F
WATERTON GATE    N/A     72  34  25 SW21G37     N/A
CARDSTON         N/A     75  30  19 SW9         N/A
MILK RIVER       N/A     81  28  15 SW20G28     N/A
ONEFOUR          N/A     81  21  11 W22G29      N/A
$$

REGIONAL REPORTS...SASKATCHEWAN

CITY           SKY/WX    TMP DP  RH WIND       PRES   REMARKS
SWIFT CURRENT  SUNNY     79  36  21 W21       29.72S
REGINA         PTSUNNY   81  43  26 W17G25    29.71S
SASKATOON      MOSUNNY   81  41  24 W18       29.66R
CYPRESS HILLS    N/A     75  28  17 W10G17      N/A
VAL MARIE        N/A     84  27  12 W14G22      N/A
ROCKGLEN         N/A     79  36  21 SW13G18     N/A
ASSINIBOIA       N/A     68  32  26 NW12G17     N/A
$$



USA.gov is the U.S. government's official web portal to all federal, state and local government web resources and services.